Regional Weather Roundup
Issued by NWS

Home | Current Version | Previous Version | Graphics & Text | Print | Product List | Glossary On
Versions: 1 2 3 4 5 6 7 8 9 10 11 12 13 14 15 16 17 18 19 20 21 22 23 24 25 26 27 28 29 30 31 32 33 34 35 36 37 38 39 40 41 42 43 44 45 46 47 48 49 50
000
ASUS45 KBOI 220210
RWRID
WEATHER ROUNDUP FOR IDAHO
NATIONAL WEATHER SERVICE BOISE ID
700 PM MST FRI NOV 21 2014

NOTE: "FAIR" INDICATES FEW OR NO CLOUDS BELOW 12000 FEET
WITH NO SIGNIFICANT WEATHER AND/OR OBSTRUCTIONS TO VISIBILITY

IDZ012-014-220300-
SOUTHWEST IDAHO


CITY           SKY/WX    TMP DP  RH WIND       PRES   REMARKS
BOISE          MOCLDY    33  28  81 SE5       29.90F WCI  29
CALDWELL       NOT AVBL
MOUNTAIN HOME  CLOUDY    33  33 100 E5        29.90F WCI  28
$$

IDZ016-017-220300-
SOUTHCENTRAL IDAHO


CITY           SKY/WX    TMP DP  RH WIND       PRES   REMARKS
BURLEY         PTCLDY    32  29  88 CALM      29.91F
JEROME         MOCLDY    39  31  72 E9        29.92F WCI  33
TWIN FALLS     MOCLDY    36  29  75 S7        29.92F WCI  30
$$

IDZ019>023-220300-
SOUTHEAST IDAHO


CITY           SKY/WX    TMP DP  RH WIND       PRES   REMARKS
IDAHO FALLS    PTCLDY    33  25  72 S5        29.94F WCI  29
POCATELLO      CLEAR     28  26  92 S6        29.94F WCI  22
REXBURG        PTCLDY    37  25  61 S12       29.92F WCI  29
$$

IDZ006-010-011-018-031-032-220300-
CENTRAL IDAHO MOUNTAINS


CITY           SKY/WX    TMP DP  RH WIND       PRES   REMARKS
MCCALL         CLOUDY    35  31  85 SE8       29.81S WCI  29
HAILEY         PTCLDY    36  30  80 CALM      29.93F
STANLEY          N/A     36  23  59 S9        29.86F WCI  29
SALMON         MOCLDY    21  18  86 S6        29.82F WCI  14
CHALLIS        CLOUDY    22  20  92 CALM      29.83F
$$

IDZ002-004-006-007-026-220300-
NORTHERN IDAHO


CITY           SKY/WX    TMP DP  RH WIND       PRES   REMARKS
LEWISTON       CLOUDY    44  36  73 E5        29.65F
LOWELL           N/A     35  32  88 N3        29.76F
COEUR D`ALENE  CLOUDY    36  34  93 NE7       29.59F WCI  30
MULLAN PASS    LGT SNOW  30  28  92 SE9G23    29.61F FOG     WCI  22
$$



USA.gov is the U.S. government's official web portal to all federal, state and local government web resources and services.